This is the latest recevied weather packets stored in our database for station/object K5WNG. If no packets are shown the sender has not sent any weather packets the latest 10 day(s).
| Time | Temp. | Humidity | Pressure | Rain* | Wind** | Luminosity | Snow |
|---|---|---|---|---|---|---|---|
| 1777395918 | 26.67° C | 83% | 1012.4 hPa | 0 mm | - | 209 W/m² | - |
| 1777395620 | 26.67° C | 83% | 1012.4 hPa | 0 mm | - | 237 W/m² | - |
| 1777395320 | 26.67° C | 83% | 1012.5 hPa | 0 mm | - | 247 W/m² | - |
| 1777395017 | 26.67° C | 83% | 1012.6 hPa | 0 mm | - | 199 W/m² | - |
| 1777394717 | 27.22° C | 83% | 1012.6 hPa | 0 mm | - | 248 W/m² | - |
| 1777394417 | 27.22° C | 83% | 1012.6 hPa | 0 mm | - | 252 W/m² | - |
| 1777394121 | 27.22° C | 83% | 1012.6 hPa | 0 mm | - | 266 W/m² | - |
| 1777393818 | 27.22° C | 83% | 1012.7 hPa | 0 mm | - | 294 W/m² | - |
| 1777393517 | 27.22° C | 83% | 1012.8 hPa | 0 mm | - | 252 W/m² | - |
| 1777393218 | 27.22° C | 83% | 1012.8 hPa | 0 mm | - | 313 W/m² | - |
| 1777392918 | 27.22° C | 82% | 1012.9 hPa | 0 mm | - | 244 W/m² | - |
| 1777392618 | 27.22° C | 82% | 1012.8 hPa | 0 mm | - | 279 W/m² | - |
| 1777392321 | 27.22° C | 83% | 1012.8 hPa | 0 mm | - | 403 W/m² | - |
| 1777392021 | 26.67° C | 83% | 1012.8 hPa | 0 mm | - | 424 W/m² | - |
| 1777391718 | 26.67° C | 84% | 1012.8 hPa | 0 mm | - | 442 W/m² | - |
| 1777391418 | 26.67° C | 84% | 1012.7 hPa | 0 mm | - | 425 W/m² | - |
| 1777391126 | 26.11° C | 85% | 1012.7 hPa | 0 mm | - | 388 W/m² | - |
| 1777390818 | 26.11° C | 85% | 1012.8 hPa | 0 mm | - | 355 W/m² | - |
| 1777390518 | 26.11° C | 85% | 1012.8 hPa | 0 mm | - | 273 W/m² | - |
| 1777390222 | 26.11° C | 86% | 1012.8 hPa | 0 mm | - | 269 W/m² | - |
| 1777389922 | 25.56° C | 86% | 1012.8 hPa | 0 mm | - | 379 W/m² | - |
| 1777389619 | 25.56° C | 87% | 1012.8 hPa | 0 mm | - | 289 W/m² | - |
| 1777389319 | 25.56° C | 88% | 1012.8 hPa | 0 mm | - | 252 W/m² | - |
| 1777389019 | 25.56° C | 88% | 1012.8 hPa | 0 mm | - | 198 W/m² | - |
| 1777388722 | 25° C | 88% | 1012.9 hPa | 0 mm | - | 191 W/m² | - |
* Rain latest hour (hover to see other rain measurements)
** Current wind speed in m/s (hover to see current wind gust speed)